[[{"header":{"parameterUnit":"m.s-1","parameterCategory":1,"la1":30.2991,"la2":30.254,"lo1":-89.0895,"lo2":-89.0444,"dy":0.0017,"dx":0.0017,"nx":28,"ny":28,"refTime":"2024-08-06T03:00:00:Z","depth":0,"parameterNumber":2,"parameterNumberName":"U-component_of_WINDS"},"data":[0,0,0,0,0,0,0,0,0,0,0,0,0,0,0,0,0,0,0,0,0,0,0,0,0,0,0,0,0,0,0,0,0,0,0,0,0,0,0,0,0,0,0,0,0,0,0,0,0,0,0,0,0,0,0,0,0,0,3.2702,3.2704,0,3.2826,3.2828,3.2829,3.2784,3.2781,3.2778,3.2775,3.2906,3.2912,3.2918,0,0,0,0,0,0,0,0,0,0,0,0,0,3.2431,3.2436,3.2702,3.2704,3.2705,3.2826,3.2828,3.2829,3.2784,3.2781,3.2777,3.2774,3.2904,3.2911,3.2918,0,0,0,0,0,0,0,0,0,0,0,0,0,3.2552,3.2438,3.2702,3.2697,3.2698,3.2826,3.2828,3.283,3.2785,3.2781,3.2776,3.2772,3.2902,3.291,3.292,3.306,0,0,3.2947,3.2951,0,0,0,0,0,0,0,0,3.2545,3.2562,3.2696,3.2698,3.2699,3.2785,3.278,3.2907,3.2786,3.2752,3.2775,3.277,3.2869,3.2881,3.2914,3.3067,3.3072,3.2948,3.2954,3.2958,3.296,0,0,0,0,0,0,0,3.2537,3.2556,3.2751,3.2698,3.27,3.2691,3.2703,3.2804,3.2833,3.2755,3.2752,3.2767,3.2869,3.2905,3.2916,3.3074,3.2948,3.2956,3.2962,3.2965,3.3352,3.3357,0,0,0,0,0,0,3.2527,3.2549,3.2747,3.2755,3.261,3.2699,3.2713,3.2762,3.2832,3.2838,3.277,3.2764,3.2891,3.2906,3.2921,3.3093,3.2958,3.2966,3.2972,3.3348,3.3353,3.3359,0,0,0,0,0,0,3.2521,3.2545,3.2742,3.2652,3.2676,3.2708,3.2763,3.2766,3.2802,3.2843,3.2849,3.2801,3.2889,3.2908,3.3027,3.3096,3.297,3.2979,3.3342,3.3349,3.3356,3.3436,0,0,0,0,0,0,3.2514,3.2543,3.2596,3.2653,3.2681,3.2845,3.2768,3.2772,3.2817,3.2811,3.2874,3.288,3.2887,3.3013,3.3036,3.3107,3.2986,3.3336,3.3345,3.3354,3.3428,3.3445,3.346,0,0,0,0,0,3.2504,3.2614,3.2599,3.2623,3.2747,3.2849,3.2865,3.2869,3.2823,3.2877,3.2904,3.2878,3.3085,3.3026,3.3051,3.3126,3.3332,3.3343,3.3353,3.342,3.3442,3.346,0,0,0,0,0,0,3.2565,3.2621,3.2605,3.2736,3.2788,3.2841,3.2909,3.2892,3.2959,3.295,3.2953,3.2968,3.3091,3.312,3.3053,3.3267,3.3202,3.3218,3.3244,3.3265,3.3281,3.3272,3.2993,0,0,0,0,0,3.2593,3.267,3.2715,3.2826,3.2853,3.2877,3.2921,3.292,3.2975,3.2997,3.3033,3.3088,3.3165,3.3216,3.329,3.3431,3.3446,3.3495,3.3512,3.3525,3.354,3.362,3.3643,3.3394,3.3394,3.3394,0,0,3.2653,3.2693,3.2741,3.284,3.288,3.2961,3.2896,3.2984,3.3045,3.3011,3.3125,3.3154,3.3216,3.3347,3.3407,3.3375,3.3612,3.3539,3.3549,3.3557,3.3633,3.3657,3.3678,3.3401,3.34,3.3399,0,0,3.2804,3.2841,3.2938,3.298,3.3042,3.3057,3.3081,3.3137,3.3155,3.327,3.3247,3.332,3.3453,3.3499,3.3539,3.371,3.369,3.3734,3.3821,3.3899,3.3918,3.3936,3.3999,3.4022,3.3748,3.3748,3.3748,0,3.287,3.299,3.2991,3.3082,3.3127,3.3099,3.32,3.3241,3.3324,3.3357,3.332,3.3488,3.3527,3.367,3.3712,3.3745,3.3775,3.3727,3.3915,3.3933,3.3949,3.401,3.4033,3.3753,3.3753,3.3752,3.3752,0,3.3071,3.3155,3.3227,3.3308,3.3361,3.3456,3.3473,3.3527,3.3522,3.3542,3.3661,3.3708,3.3792,3.3825,3.3821,3.3969,3.3948,3.3913,3.3847,3.3978,3.4035,3.4058,3.3761,3.3759,3.3757,3.3756,0,0,3.3263,3.3344,3.3371,3.3408,3.3475,3.3541,3.3636,3.3717,3.3765,3.3823,3.3905,3.4019,3.3988,3.4034,3.4035,3.4103,3.4239,3.4061,3.4062,3.4094,3.4408,3.4436,3.4462,3.4225,3.423,3.4233,3.4404,0,3.3421,3.3587,3.3592,3.3744,3.3823,3.3799,3.3882,3.3934,3.3956,3.4027,3.4051,3.4133,3.4085,3.4113,3.4179,3.4208,3.4303,3.4196,3.4304,3.4308,3.4291,3.4492,3.452,3.4679,3.4426,3.443,3.4433,0,3.3627,3.3692,3.3853,3.3911,3.3944,3.4019,3.4095,3.4163,3.4222,3.4233,3.4286,3.4277,3.4377,3.4307,3.4446,3.4374,3.4418,3.444,3.4446,3.4458,3.4379,3.4511,3.473,3.4755,3.4467,3.4465,3.4462,0,3.3755,3.3882,3.3996,3.4028,3.4097,3.4151,3.4183,3.4237,3.4286,3.4353,3.4386,3.4464,3.4508,3.4569,3.4583,3.453,3.4724,3.4654,3.4738,3.4738,3.4781,3.4779,3.5012,3.4807,3.4806,3.4806,3.4805,0,3.3931,3.4031,3.4054,3.4124,3.4236,3.4241,3.4352,3.438,3.4429,3.4506,3.449,3.4562,3.4575,3.4651,3.4663,3.4778,3.4797,3.4811,3.4813,3.4814,3.4812,3.4844,3.4834,3.4812,3.4811,3.4809,3.4808,0,3.4093,3.4112,3.4234,3.429,3.4306,3.4387,3.4436,3.4504,3.4524,3.4622,3.4645,3.4677,3.4766,3.4786,3.4892,3.49,3.5037,3.5028,3.5017,3.5017,3.5101,3.5094,3.5365,3.5402,3.517,3.5172,3.5174,0,3.4205,3.4282,3.4346,3.4396,3.443,3.451,3.4561,3.457,3.4623,3.4697,3.4757,3.4844,3.4915,3.5059,3.5093,3.5175,3.5168,3.5258,3.518,3.5179,3.5173,3.5169,3.5178,3.5273,3.5275,3.5277,3.5279,0,3.4404,3.441,3.4483,3.456,3.4621,3.4682,3.474,3.4782,3.4799,3.4861,3.4952,3.5006,3.5115,3.5202,3.5285,3.5319,3.5304,3.5303,3.5327,3.5329,3.5321,3.533,3.506,3.5297,3.5295,3.5294,3.5293,3.5292,3.4546,3.4614,3.4671,3.4753,3.4798,3.4853,3.4921,3.495,3.5025,3.5113,3.5114,3.5214,3.5274,3.5382,3.5422,3.5502,3.5474,3.5509,3.5518,3.5527,3.5536,3.5307,3.5517,3.5516,3.5516,3.5515,3.5515,0,3.4747,3.4782,3.4857,3.494,3.5006,3.4983,3.5047,3.5104,3.5192,3.5248,3.5318,3.5424,3.5509,3.555,3.5636,3.5692,3.5687,3.5714,3.5711,3.572,3.5554,3.5526,3.5717,3.5717,3.5717,3.5717,3.5717,3.5717,3.4858,3.4973,3.4986,3.5123,3.5158,3.5255,3.5294,3.5346,3.5391,3.551,3.5581,3.5606,3.5658,3.5747,3.5826,3.5836,3.5869,3.5901,3.5908,3.5752,3.5732,3.5712,3.5685,3.5907,3.5907,3.6067,3.6069,3.607]},{"header":{"parameterUnit":"m.s-1","parameterCategory":1,"la1":30.2991,"la2":30.254,"lo1":-89.0895,"lo2":-89.0444,"dy":0.0017,"dx":0.0017,"nx":28,"ny":28,"refTime":"2024-08-06T03:00:00:Z","depth":0,"parameterNumber":3,"parameterNumberName":"V-component_of_WINDS"},"data":[0,0,0,0,0,0,0,0,0,0,0,0,0,0,0,0,0,0,0,0,0,0,0,0,0,0,0,0,0,0,0,0,0,0,0,0,0,0,0,0,0,0,0,0,0,0,0,0,0,0,0,0,0,0,0,0,0,0,0.6266,0.6266,0,0.6293,0.6294,0.6294,0.6268,0.6267,0.6266,0.6265,0.6296,0.6298,0.63,0,0,0,0,0,0,0,0,0,0,0,0,0,0.6193,0.6194,0.6266,0.6266,0.6266,0.6293,0.6294,0.6294,0.6268,0.6267,0.6266,0.6265,0.6296,0.6298,0.63,0,0,0,0,0,0,0,0,0,0,0,0,0,0.6223,0.6195,0.6265,0.6257,0.6256,0.6293,0.6294,0.6294,0.6269,0.6267,0.6265,0.6264,0.6295,0.6297,0.63,0.6348,0,0,0.6308,0.631,0,0,0,0,0,0,0,0,0.6221,0.6226,0.6258,0.6257,0.6257,0.6276,0.6279,0.6312,0.6269,0.6264,0.6265,0.6263,0.6291,0.6294,0.6302,0.635,0.6351,0.6309,0.631,0.6311,0.6312,0,0,0,0,0,0,0,0.6219,0.6224,0.6277,0.6258,0.6258,0.6252,0.6255,0.6285,0.6286,0.6264,0.6262,0.6266,0.629,0.63,0.6303,0.6351,0.6309,0.6311,0.6313,0.6314,0.644,0.6441,0,0,0,0,0,0,0.6218,0.6223,0.6276,0.6277,0.6235,0.6255,0.6257,0.6271,0.6285,0.6286,0.6267,0.6265,0.6296,0.63,0.6304,0.6362,0.6311,0.6314,0.6315,0.6438,0.644,0.6442,0,0,0,0,0,0,0.6216,0.6223,0.6275,0.625,0.6256,0.6258,0.6273,0.6273,0.6282,0.6288,0.6288,0.6277,0.6295,0.63,0.6337,0.6362,0.6315,0.6318,0.6436,0.6439,0.6441,0.6477,0,0,0,0,0,0,0.6214,0.6222,0.624,0.625,0.6257,0.6307,0.6275,0.6274,0.6287,0.6283,0.6297,0.6298,0.6294,0.6333,0.634,0.6365,0.632,0.6434,0.6437,0.644,0.6474,0.6481,0.6486,0,0,0,0,0,0.6212,0.6249,0.6241,0.6248,0.6279,0.6308,0.6312,0.6307,0.6289,0.6307,0.631,0.6297,0.6358,0.6337,0.6345,0.6371,0.6432,0.6436,0.644,0.6471,0.6479,0.6486,0,0,0,0,0,0,0.6243,0.6251,0.6241,0.6283,0.6295,0.6304,0.6327,0.6316,0.6334,0.6331,0.6324,0.6327,0.6366,0.6372,0.6349,0.6418,0.6392,0.6398,0.6413,0.6421,0.6428,0.6426,0.6322,0,0,0,0,0,0.6255,0.6277,0.6283,0.6319,0.6326,0.6325,0.6338,0.6332,0.6345,0.635,0.6356,0.637,0.6392,0.6407,0.6427,0.6474,0.6477,0.6496,0.6502,0.6507,0.6513,0.6538,0.6547,0.6455,0.6455,0.6455,0,0,0.628,0.6286,0.6301,0.6326,0.6334,0.6358,0.633,0.6356,0.6374,0.6354,0.639,0.6395,0.6409,0.6451,0.647,0.6458,0.6538,0.6512,0.6516,0.6519,0.6543,0.6552,0.656,0.6458,0.6457,0.6457,0,0,0.6337,0.6344,0.6375,0.6384,0.6397,0.6397,0.6404,0.6415,0.6417,0.6452,0.6438,0.6459,0.6498,0.6509,0.6519,0.6581,0.6569,0.6587,0.6621,0.6646,0.6654,0.666,0.6683,0.6691,0.6592,0.6593,0.6593,0,0.6366,0.6401,0.6393,0.6421,0.6432,0.6414,0.6447,0.6456,0.6476,0.6485,0.647,0.6517,0.6526,0.657,0.6585,0.6594,0.6603,0.6586,0.6653,0.6659,0.6665,0.6687,0.6695,0.6595,0.6594,0.6594,0.6594,0,0.6437,0.6461,0.6485,0.6504,0.6518,0.6548,0.6545,0.6561,0.6554,0.6555,0.6592,0.6601,0.6623,0.6633,0.6628,0.6678,0.6669,0.6654,0.6628,0.6676,0.6697,0.6705,0.6598,0.6597,0.6596,0.6596,0,0,0.6516,0.6529,0.6538,0.6546,0.6559,0.6578,0.6608,0.6629,0.6643,0.6657,0.6682,0.6714,0.67,0.6712,0.6707,0.6729,0.6778,0.6711,0.6711,0.6724,0.6834,0.6847,0.6856,0.677,0.6771,0.6773,0.6834,0,0.6574,0.6624,0.6618,0.6666,0.6689,0.6672,0.6697,0.6709,0.6711,0.6731,0.6733,0.6757,0.6736,0.6743,0.6764,0.6767,0.68,0.6763,0.6794,0.6795,0.6792,0.6867,0.688,0.6937,0.6841,0.6843,0.6844,0,0.6649,0.6665,0.6715,0.6725,0.6734,0.6757,0.6776,0.6796,0.6808,0.6808,0.6821,0.6813,0.6843,0.6815,0.6857,0.6832,0.6844,0.6848,0.685,0.6854,0.6823,0.6873,0.6955,0.6964,0.6856,0.6855,0.6854,0,0.6702,0.6736,0.6771,0.6779,0.6791,0.6807,0.6813,0.6824,0.6837,0.6854,0.6863,0.6883,0.6894,0.6911,0.6908,0.6888,0.6951,0.6923,0.6953,0.6953,0.6968,0.6967,0.7053,0.6974,0.6974,0.6974,0.6974,0,0.6769,0.68,0.6795,0.6817,0.6852,0.6845,0.688,0.6884,0.6894,0.6916,0.6903,0.6924,0.6919,0.694,0.6938,0.6974,0.6979,0.698,0.698,0.6982,0.6982,0.6991,0.6987,0.6976,0.6975,0.6975,0.6975,0,0.6835,0.6832,0.6869,0.6877,0.688,0.6906,0.6913,0.6934,0.6934,0.6963,0.6969,0.697,0.6995,0.6993,0.7022,0.702,0.7064,0.7059,0.706,0.7059,0.7089,0.7087,0.7185,0.7198,0.7109,0.711,0.7111,0,0.6878,0.6902,0.6912,0.6926,0.6932,0.6955,0.6968,0.6962,0.6976,0.6992,0.7011,0.7034,0.7053,0.7093,0.7097,0.7119,0.7114,0.7147,0.7117,0.7119,0.7116,0.7115,0.7117,0.7153,0.7154,0.7155,0.7156,0,0.6954,0.6952,0.6971,0.699,0.7006,0.7021,0.7034,0.7047,0.7042,0.7059,0.7083,0.7098,0.7126,0.715,0.717,0.7177,0.7166,0.7165,0.7173,0.7176,0.7177,0.7178,0.7077,0.7163,0.7162,0.7162,0.7161,0.7161,0.7011,0.7032,0.7042,0.7064,0.7073,0.7086,0.7106,0.7109,0.7129,0.7151,0.7146,0.7174,0.7187,0.7213,0.7222,0.7244,0.7232,0.7244,0.7247,0.725,0.7254,0.7172,0.7248,0.7247,0.7247,0.7247,0.7247,0,0.7088,0.7094,0.7114,0.7133,0.715,0.7137,0.7151,0.7167,0.7192,0.7203,0.7222,0.725,0.7273,0.7279,0.7301,0.7318,0.7313,0.7324,0.7323,0.7325,0.7263,0.7254,0.7327,0.7327,0.7327,0.7327,0.7327,0.7327,0.713,0.7164,0.7163,0.7202,0.7208,0.7235,0.7244,0.7256,0.7266,0.7298,0.7317,0.732,0.733,0.7352,0.7373,0.7374,0.7383,0.7396,0.7395,0.7337,0.7329,0.7322,0.7314,0.7398,0.7398,0.7456,0.7456,0.7457]}]]